Retour au catalogue

STARLINK-31428

ActifCommunicationsVLEO
NORAD 59367·PAYLOAD·🇺🇸 United States

Lancé Mar 31, 2024 depuis Cape Canaveral Space Force Station

Loading…

Prochains Passages (prochaines 24 heures)

TLE

FraisSource: CelesTrak SupGP

Époque: Sep 14, 2026, 21:42 UTC

1 59367C 24060V   26257.90465278  .00028621  00000+0  10370-2 0  2573
2 59367  43.0007 271.0890 0001624 268.5624  65.4014 15.27552735    12

Suivez STARLINK-31428 en temps réel avec AllMySat

Download on the App Store